Albuquerque, NM

9:12 AM MST on February 09, 2016 (GMT -0700)
Albuquerque International Sunport

Weather History for KABQ - March, 2014

Change the Weather History Date:

Saturday, March 15, 2014

  Actual Average Record
Temperature  
Mean Temperature 47 °F 48 °F  
Max Temperature 57 °F 60 °F 77 °F (2007)
Min Temperature 37 °F 36 °F 11 °F (1962)
Degree Days  
Heating Degree Days 18 17  
Month to date heating degree days 261 279  
Since 1 July heating degree days 3404 3582  
Cooling Degree Days 0 0  
Month to date cooling degree days 0 0  
Year to date cooling degree days 0 0  
Moisture  
Dew Point 32 °F    
Average Humidity 63    
Maximum Humidity 100    
Minimum Humidity 25    
Precipitation  
Precipitation T in 0.02 in 1.45 in (1998)
Month to date precipitation 0.22 0.27  
Year to date precipitation 0.40 1.13  
Snow  
Snow 0.00 in - - ()
Month to date snowfall T  
Since 1 July snowfall 6.6  
Snow Depth 0.00 in    
Sea Level Pressure  
Sea Level Pressure 29.99 in    
Wind  
Wind Speed 13 mph (North)    
Max Wind Speed 35 mph    
Max Gust Speed 44 mph    
Visibility 6 miles    
Events Fog    
T = Trace of Precipitation, MM = Missing Value Source: NWS Daily Summary

Daily Weather History Graph

Daily Weather History Graph

Search for Another Location

Airport or City:

Trip Planner

Search our weather history database for the weather conditions in past years. The results will help you decide how hot, cold, wet, or windy it might be!

Date:

Astronomy

Mar. 15, 2014 Rise Set
Actual Time 7:16 AM MDT 7:14 PM MDT
Civil Twilight 6:51 AM MDT 7:39 PM MDT
Nautical Twilight 6:22 AM MDT 8:08 PM MDT
Astronomical Twilight 5:52 AM MDT 8:38 PM MDT
Moon 6:36 PM MDT (3/15) 6:29 AM MDT (3/15)
Length of Visible Light 12h 47m
Length of Day
11h 57m
Waxing Gibbous, 99% of the Moon is Illuminated
Mar 15
Waxing Gibbous
Mar 16
Full
Mar 23
Last Quarter
Mar 30
New
Apr 7
First Quarter

Hourly Weather History & Observations

Time (MDT) Temp. Windchill Dew Point Humidity Pressure Visibility Wind Dir Wind Speed Gust Speed Precip Events Conditions
12:52 AM 43.0 °F 40.3 °F 39.9 °F 89% 29.99 in 10.0 mi North 4.6 mph - N/A   Scattered Clouds
1:52 AM 41.0 °F - 37.9 °F 89% 29.98 in 10.0 mi Calm Calm - N/A   Scattered Clouds
2:52 AM 41.0 °F 39.0 °F 39.0 °F 93% 29.96 in 9.0 mi NW 3.5 mph - N/A   Mostly Cloudy
3:28 AM 39.9 °F - 39.0 °F 97% 30.04 in 4.0 mi Calm Calm - N/A   Overcast
3:52 AM 39.9 °F - 39.0 °F 97% 29.95 in 8.0 mi Calm Calm - N/A   Overcast
4:35 AM 37.9 °F 33.5 °F 37.0 °F 97% 30.02 in 1.2 mi SE 5.8 mph - N/A   Overcast
4:49 AM 37.4 °F 32.1 °F 37.4 °F 100% 30.01 in 0.5 mi SE 6.9 mph - N/A Fog Fog
4:52 AM 37.9 °F 33.5 °F 37.0 °F 97% 29.96 in 0.2 mi SE 5.8 mph - N/A Fog Fog
5:29 AM 37.0 °F 33.3 °F 36.0 °F 96% 30.01 in 3.0 mi SE 4.6 mph - N/A   Overcast
5:43 AM 37.9 °F - 37.0 °F 97% 30.01 in 2.5 mi Calm Calm - N/A   Overcast
5:52 AM 37.9 °F 33.5 °F 36.0 °F 93% 29.95 in 3.0 mi West 5.8 mph - N/A   Overcast
6:13 AM 37.9 °F 35.5 °F 37.0 °F 97% 30.01 in 0.2 mi West 3.5 mph - N/A Fog Fog
6:30 AM 37.9 °F - 37.9 °F 100% 30.01 in 1.0 mi Calm Calm - N/A   Overcast
6:52 AM 39.0 °F - 37.9 °F 96% 29.96 in 6.0 mi Calm Calm - N/A   Overcast
7:10 AM 39.0 °F - 37.9 °F 96% 30.02 in 6.0 mi Calm Calm - N/A   Overcast
7:16 AM 39.0 °F - 37.9 °F 96% 30.02 in 1.0 mi Calm Calm - N/A   Overcast
7:33 AM 39.0 °F 35.7 °F 37.0 °F 93% 30.02 in 1.0 mi ENE 4.6 mph - N/A   Overcast
7:42 AM 39.0 °F 36.8 °F 37.0 °F 93% 30.02 in 3.0 mi East 3.5 mph - N/A   Mostly Cloudy
7:52 AM 37.9 °F 35.5 °F 37.0 °F 97% 29.97 in 3.0 mi ESE 3.5 mph - N/A   Scattered Clouds
8:28 AM 37.9 °F 34.4 °F 36.0 °F 93% 30.04 in 0.5 mi WNW 4.6 mph - N/A   Scattered Clouds
8:43 AM 39.0 °F 36.8 °F 37.9 °F 96% 30.04 in 0.5 mi NW 3.5 mph - N/A Fog Fog
8:52 AM 39.0 °F - 37.9 °F 96% 30.00 in 0.1 mi Calm Calm - N/A Fog Fog
9:36 AM 41.0 °F 39.0 °F 39.9 °F 96% 30.05 in 0.5 mi Variable 3.5 mph - N/A Fog Fog
9:41 AM 42.1 °F - 39.9 °F 92% 30.05 in 1.0 mi Calm Calm - N/A   Scattered Clouds
9:44 AM 42.1 °F - 39.9 °F 92% 30.04 in 3.0 mi Calm Calm - N/A   Scattered Clouds
9:52 AM 43.0 °F 40.3 °F 39.9 °F 89% 29.99 in 5.0 mi Variable 4.6 mph - N/A   Scattered Clouds
10:52 AM 48.9 °F - 34.0 °F 56% 29.96 in 10.0 mi WNW 16.1 mph 19.6 mph N/A   Mostly Cloudy
11:52 AM 52.0 °F - 26.1 °F 37% 29.93 in 10.0 mi NW 25.3 mph 31.1 mph N/A   Mostly Cloudy
12:52 PM 55.0 °F - 25.0 °F 31% 29.90 in 10.0 mi NW 18.4 mph 26.5 mph N/A   Mostly Cloudy
1:52 PM 55.9 °F - 21.9 °F 27% 29.84 in 10.0 mi NW 21.9 mph 34.5 mph N/A   Mostly Cloudy
2:52 PM 52.0 °F - 24.1 °F 34% 29.85 in 10.0 mi NNW 23.0 mph 33.4 mph 0.00 in   Mostly Cloudy
3:26 PM 55.0 °F - 23.0 °F 29% 29.93 in 10.0 mi North 26.5 mph 35.7 mph N/A   Mostly Cloudy
3:52 PM 51.1 °F - 21.0 °F 31% 29.89 in 10.0 mi NNW 27.6 mph 39.1 mph 0.00 in   Mostly Cloudy
4:52 PM 46.0 °F 36.5 °F 30.9 °F 56% 29.94 in 10.0 mi NNE 31.1 mph 43.7 mph N/A   Mostly Cloudy
5:52 PM 48.0 °F - 24.1 °F 39% 29.95 in 10.0 mi NNE 18.4 mph 25.3 mph N/A   Mostly Cloudy
6:52 PM 48.9 °F - 21.9 °F 35% 29.97 in 10.0 mi North 12.7 mph - N/A   Mostly Cloudy
7:17 PM 48.9 °F - 23.0 °F 36% 30.04 in 10.0 mi NE 12.7 mph - N/A   Mostly Cloudy
7:52 PM 46.9 °F - 26.1 °F 44% 30.03 in 10.0 mi NE 9.2 mph - N/A   Mostly Cloudy
8:52 PM 46.9 °F - 24.1 °F 41% 30.08 in 10.0 mi NNW 11.5 mph - N/A   Mostly Cloudy
9:52 PM 46.0 °F 40.2 °F 21.9 °F 39% 30.10 in 10.0 mi North 12.7 mph - N/A   Scattered Clouds
10:52 PM 45.0 °F 37.9 °F 19.0 °F 36% 30.12 in 10.0 mi North 16.1 mph 27.6 mph N/A   Scattered Clouds
11:52 PM 45.0 °F 37.6 °F 10.9 °F 25% 30.13 in 10.0 mi NNE 17.3 mph - N/A   Scattered Clouds